Bradshaw AFB, HI

11:30 PM HST on July 20, 2017 (GMT -1000)
Bradshaw Army Air Field

Weather History for PHSF - September, 2013

Change the Weather History Date:

Sunday, September 22, 2013

  Actual Average Record
Temperature  
Mean Temperature 56 °F -  
Max Temperature 68 °F 69 °F 78 °F (1998)
Min Temperature 44 °F 49 °F 44 °F (2000)
Degree Days  
Heating Degree Days 9    
Growing Degree Days 6 (Base 50)    
Moisture  
Dew Point 50 °F    
Average Humidity 73    
Maximum Humidity 94    
Minimum Humidity 43    
Precipitation  
Precipitation 0.00 in - - ()
Sea Level Pressure  
Sea Level Pressure 30.31 in    
Wind  
Wind Speed 6 mph (SSW)    
Max Wind Speed 13 mph    
Max Gust Speed 22 mph    
Visibility 12 miles    
Events      
Averages and records for this station are not official NWS values.
T = Trace of Precipitation, MM = Missing Value Source: NWS Daily Summary

Daily Weather History Graph

Daily Weather History Graph

Search for Another Location

Airport or City:

Trip Planner

Search our weather history database for the weather conditions in past years. The results will help you decide how hot, cold, wet, or windy it might be!

Date:

Astronomy

Sep. 22, 2013 Rise Set
Actual Time 6:11 AM HST 6:18 PM HST
Civil Twilight 5:49 AM HST 6:39 PM HST
Nautical Twilight 5:23 AM HST 7:05 PM HST
Astronomical Twilight 4:58 AM HST 7:31 PM HST
Moon 8:49 PM HST (9/22) 9:10 AM HST (9/22)
Length of Visible Light 12h 50m
Length of Day
12h 06m
Waning Gibbous, 87% of the Moon is Illuminated
Sep 22
Waning Gibbous
Sep 26
Last Quarter
Oct 4
New
Oct 11
First Quarter
Oct 18
Full

Hourly Weather History & Observations

Time (HST) Temp. Windchill Dew Point Humidity Pressure Visibility Wind Dir Wind Speed Gust Speed Precip Events Conditions
12:46 AM 51.8 °F - 46.4 °F 82% 30.34 in 12.0 mi ESE 3.5 mph - N/A   Mostly Cloudy
12:51 AM 51.8 °F - 46.4 °F 82% 30.34 in 12.0 mi ESE 4.6 mph - N/A   Scattered Clouds
12:56 AM 51.4 °F - 46.8 °F 84% 30.33 in 12.0 mi SE 5.8 mph - N/A   Partly Cloudy
1:56 AM 47.3 °F - 42.8 °F 84% 30.32 in 12.0 mi North 2.3 mph - N/A   Clear
2:56 AM 45.9 °F - 42.4 °F 88% 30.31 in 12.0 mi SSE 1.2 mph - N/A   Clear
3:56 AM 44.1 °F 42.5 °F 39.6 °F 84% 30.29 in 12.0 mi NW 3.5 mph - N/A   Clear
4:56 AM 47.7 °F - 46.0 °F 94% 30.31 in 12.0 mi NE 1.2 mph - N/A   Clear
5:56 AM 47.1 °F - 39.7 °F 76% 30.32 in 12.0 mi North 4.6 mph - N/A   Clear
6:56 AM 46.9 °F - 34.5 °F 62% 30.34 in 12.0 mi ESE 4.6 mph - N/A   Clear
7:56 AM 56.7 °F - 42.4 °F 59% 30.35 in 12.0 mi WSW 3.5 mph - N/A   Clear
8:56 AM 62.2 °F - 39.4 °F 43% 30.35 in 12.0 mi WSW 2.3 mph - N/A   Clear
9:56 AM 65.1 °F - 44.4 °F 47% 30.35 in 12.0 mi West 6.9 mph 12.7 mph N/A   Clear
10:56 AM 66.7 °F - 50.0 °F 55% 30.34 in 12.0 mi SW 6.9 mph 18.4 mph N/A   Partly Cloudy
11:56 AM 67.3 °F - 50.2 °F 54% 30.32 in 12.0 mi West 5.8 mph 16.1 mph N/A   Mostly Cloudy
12:21 PM 66.2 °F - 53.6 °F 64% 30.32 in 12.0 mi West 3.5 mph 16.1 mph N/A   Mostly Cloudy
12:26 PM 66.2 °F - 53.6 °F 64% 30.32 in 12.0 mi WSW 3.5 mph 13.8 mph N/A   Mostly Cloudy
12:36 PM 68.0 °F - 51.8 °F 56% 30.31 in 12.0 mi SSE 8.1 mph 12.7 mph N/A   Mostly Cloudy
12:46 PM 68.0 °F - 50.0 °F 52% 30.31 in 12.0 mi South 8.1 mph 15.0 mph N/A   Mostly Cloudy
12:56 PM 68.5 °F - 50.7 °F 53% 30.30 in 12.0 mi South 8.1 mph 15.0 mph N/A   Mostly Cloudy
1:56 PM 66.7 °F - 55.2 °F 66% 30.29 in 12.0 mi WSW 11.5 mph 21.9 mph N/A   Mostly Cloudy
2:56 PM 66.4 °F - 55.8 °F 69% 30.27 in 12.0 mi WSW 11.5 mph 16.1 mph N/A   Scattered Clouds
3:21 PM 66.2 °F - 57.2 °F 73% 30.28 in 12.0 mi West 12.7 mph 20.7 mph N/A   Mostly Cloudy
3:26 PM 64.4 °F - 55.4 °F 73% 30.28 in 12.0 mi West 9.2 mph 20.7 mph N/A   Mostly Cloudy
3:36 PM 64.4 °F - 55.4 °F 73% 30.28 in 12.0 mi WSW 8.1 mph - N/A   Mostly Cloudy
3:56 PM 65.3 °F - 56.1 °F 72% 30.28 in 12.0 mi West 11.5 mph - N/A   Mostly Cloudy
4:16 PM 64.4 °F - 55.4 °F 73% 30.27 in 12.0 mi West 10.4 mph 16.1 mph N/A   Scattered Clouds
4:21 PM 62.6 °F - 55.4 °F 77% 30.27 in 12.0 mi West 6.9 mph - N/A   Mostly Cloudy
4:36 PM 64.4 °F - 55.4 °F 73% 30.27 in 12.0 mi WSW 10.4 mph - N/A   Mostly Cloudy
4:41 PM 62.6 °F - 55.4 °F 77% 30.27 in 12.0 mi West 8.1 mph - N/A   Mostly Cloudy
4:56 PM 63.0 °F - 55.6 °F 77% 30.28 in 11.0 mi West 6.9 mph 15.0 mph N/A   Mostly Cloudy
5:01 PM 62.6 °F - 55.4 °F 77% 30.28 in 12.0 mi WSW 8.1 mph 15.0 mph N/A   Mostly Cloudy
5:36 PM 60.8 °F - 55.4 °F 82% 30.29 in 12.0 mi WSW 3.5 mph - N/A   Overcast
5:41 PM 60.8 °F - 55.4 °F 82% 30.29 in 12.0 mi WSW 4.6 mph - N/A   Overcast
5:46 PM 60.8 °F - 53.6 °F 77% 30.29 in 12.0 mi South 4.6 mph - N/A   Overcast
5:51 PM 60.8 °F - 53.6 °F 77% 30.29 in 12.0 mi SSE 6.9 mph - N/A   Overcast
5:56 PM 60.3 °F - 52.9 °F 77% 30.29 in 12.0 mi SSE 9.2 mph - N/A   Overcast
6:36 PM 59.0 °F - 51.8 °F 77% 30.30 in 12.0 mi SSE 9.2 mph - N/A   Mostly Cloudy
6:46 PM 59.0 °F - 51.8 °F 77% 30.30 in 12.0 mi SE 10.4 mph - N/A   Mostly Cloudy
6:56 PM 57.9 °F - 50.4 °F 76% 30.31 in 12.0 mi SSE 10.4 mph 16.1 mph N/A   Overcast
7:56 PM 55.9 °F - 49.3 °F 78% 30.32 in 12.0 mi SSE 4.6 mph - N/A   Mostly Cloudy
8:11 PM 55.4 °F - 50.0 °F 82% 30.32 in 12.0 mi SE 10.4 mph - N/A   Scattered Clouds
8:16 PM 55.4 °F - 50.0 °F 82% 30.33 in 12.0 mi SSE 6.9 mph - N/A   Mostly Cloudy
8:51 PM 55.4 °F - 46.4 °F 72% 30.34 in 12.0 mi ESE 9.2 mph 13.8 mph N/A   Scattered Clouds
8:56 PM 54.1 °F - 45.9 °F 74% 30.34 in 12.0 mi ESE 8.1 mph - N/A   Mostly Cloudy
9:11 PM 53.6 °F - 46.4 °F 77% 30.34 in 12.0 mi SE 6.9 mph - N/A   Scattered Clouds
9:56 PM 51.6 °F - 46.0 °F 81% 30.34 in 12.0 mi ESE 5.8 mph - N/A   Clear
10:56 PM 50.7 °F - 44.6 °F 80% 30.34 in 12.0 mi ESE 5.8 mph - N/A   Clear
11:56 PM 49.5 °F - 45.0 °F 84% 30.33 in 11.0 mi ESE 5.8 mph - N/A   Clear